Location: Maccacari
(45.1333°N, 11.1333°E)
Time: 03:07:40
(UTC+00:00)

Altair - Pass Details

Date: 28 January 2021
Orbit: 1501 x 1682 km, 47.2° (Epoch: 01 March)

Event Time Altitude Azimuth Distance (km) Brightness Sun altitude
Rises 01:17:42 0° 190° (S) 4,788 - -54.7°
Reaches altitude 10° 01:21:32 10° 177° (S) 3,835 - -54.2°
Maximum altitude 01:28:50 24° 128° (SE) 2,916 - -53.2°
Exits shadow 01:31:44 21° 105° (ESE) 3,102 9.2 -52.8°
Drops below altitude 10° 01:36:17 10° 80° (E) 3,932 10.0 -52.2°
Sets 01:40:14 0° 68° (ENE) 4,935 10.8 -51.6°
